Regional Weather Roundup
Issued by NWS

Home | Current Version | Previous Version | Graphics & Text | Print | Product List | Glossary On
Versions: 1 2 3 4 5 6 7 8 9 10 11 12 13 14 15 16 17 18 19 20 21 22 23 24 25 26 27 28 29 30 31 32 33 34 35 36 37 38 39 40 41 42 43 44 45 46 47 48 49 50
000
ASUS43 KLOT 271609
RWRIL

ILLINOIS REGIONAL WEATHER ROUNDUP
NATIONAL WEATHER SERVICE CHICAGO/ROMEOVILLE IL
1100 AM CDT SUN MAY 27 2018

NOTE: "FAIR" INDICATES FEW OR NO CLOUDS BELOW 12,000 FEET WITH NO
SIGNIFICANT WEATHER AND/OR OBSTRUCTIONS TO VISIBILITY.

* THESE STATIONS ARE NOT UNDER NWS QUALITY CONTROL. THEY ALSO MAY NOT
  REPORT WEATHER SUCH AS PRECIPITATION OR FOG.

ILZ001-002-007-009-015-016-024-271700-
NORTHWEST ILLINOIS

CITY           SKY/WX    TMP DP  RH WIND       PRES   REMARKS
MOLINE         FAIR      89  72  56 SW7       29.85S HX  96
STERLING*        N/A    N/A N/A N/A MISG        N/A
SAVANNA*       FAIR      85  71  63 SW6       29.87R HX  90
$$

ILZ003-004-008-010-011-017-018-271700-
NORTH CENTRAL ILLINOIS

CITY           SKY/WX    TMP DP  RH WIND       PRES   REMARKS
ROCKFORD       FAIR      87  67  51 S7        29.89S HX  90
FREEPORT*      FAIR      88  65  47 SW8       29.90R HX  90
ROCHELLE*      FAIR      88  65  45 SW5       29.89S HX  90
DE KALB*       FAIR      87  66  49 W3        29.89F HX  89
PERU*          FAIR      91  69  48 CALM      29.88S HX  95
$$

ILZ005-006-012>014-019>023-271700-
NORTHEAST ILLINOIS

CITY           SKY/WX    TMP DP  RH WIND       PRES   REMARKS
CHICAGO-OHARE  FAIR      89  64  43 W7        29.86S HX  90
CHICAGO-MIDWAY FAIR      90  68  48 S7        29.86F HX  94
AURORA         FAIR      88  68  51 S5        29.88S HX  91
LANSING*       FAIR      88  71  56 SW3       29.88S HX  94
JOLIET*        FAIR      89  72  57 S3        29.88S HX  96
WAUKEGAN       FAIR      88  67  49 VRB5      29.86S HX  91
DUPAGE AIRPORT FAIR      88  70  55 SW7       29.87S HX  93
KANKAKEE*      FAIR      89  68  49 CALM      29.88F HX  92
WHEELING       FAIR      91  66  43 CALM      29.88S HX  93
MORRIS*        FAIR      90  68  49 SW7       29.87S HX  93
ROMEOVILLE*    FAIR      87  69  53 SW6       29.88S HX  91
$$

LMZ740>746-271700-
SOUTHERN LAKE MICHIGAN

STATION/POSITION SKY/WX   TEMP    WIND        PRES    VSBY  WAVE
                          AIR SEA DIR/SP/G                  HT/PER
                          (F)     (DEG/KT/KT) (MB)    (MI)  (FT/S)
SOUTHERN BUOY              52 41  180/  8/  8 1011.8F         0
WILMETTE HARBOR            65 59  130/  4/  4   N/A           0
HARRISON CRIB              78     130/ 11/ 11   N/A
BURNHAM HARBOR                    120/  3/  6   N/A
CALUMET HARBOR             86     200/  3/  6 1011.2F
BURNS HARBOR               78        CALM     1012.2F
MICHIGAN CITY              83        CALM       N/A
MICHIGAN CITY 6N           79 65   CALM  /  2   N/A           0
ST. JOSEPH                 73 68  170/  4/  4 1012.0          0
$$

ILZ025>027-034>036-040-047-049-050-058-095>099-271700-
WEST-CENTRAL ILLINOIS

CITY           SKY/WX    TMP DP  RH WIND       PRES   REMARKS
QUINCY         SUNNY     88  70  55 CALM      29.89R HX  93
GALESBURG*     FAIR      88  71  56 SW3       29.89S HX  93
MACOMB*        SUNNY     87  72  62 W3        29.90S HX  93
JACKSONVILLE*  SUNNY     86  74  67 W8        29.89R HX  94
PITTSFIELD*    SUNNY     86  74  67 W5        29.91R HX  95
$$

ILZ028>032-037-038-041>044-048-051>054-059>061-271700-
CENTRAL ILLINOIS

CITY           SKY/WX    TMP DP  RH WIND       PRES   REMARKS
PONTIAC        FAIR      89  69  51 SW3       29.89S HX  93
BLOOMINGTON    FAIR      88  73  61 SE7       29.91R HX  95
DECATUR        FAIR      87  71  58 VRB3      29.90S HX  93
PEORIA         FAIR      87  73  62 SW6       29.88S HX  94
LACON*         FAIR      88  73  60 SW5       29.87S HX  95
LINCOLN*       FAIR      87  74  65 S3        29.89R HX  96
SPRINGFIELD    FAIR      89  75  63 CALM      29.88F HX  99
TAYLORVILLE    FAIR      86  73  64 CALM      29.90S HX  92
$$

ILZ033-039-045-046-055>057-062-063-271700-
EAST-CENTRAL ILLINOIS

CITY           SKY/WX    TMP DP  RH WIND       PRES   REMARKS
CHAMPAIGN      FAIR      87  72  60 SW6       29.90F HX  93
DANVILLE*      FAIR      87  71  58 W3        29.88S HX  92
RANTOUL*       FAIR      89  75  63 S3        29.90S HX  98
MATTOON        FAIR      86  72  62 S5        29.90S HX  92
PARIS*         FAIR      86  70  58 S3        29.91S HX  91
$$

ILZ079-100>102-271700-
SOUTHWEST ILLINOIS

CITY           SKY/WX    TMP DP  RH WIND       PRES   REMARKS
ALTON          SUNNY     86  75  70 SW5       29.91S HX  95
BELLEVILLE     SUNNY     87  73  61 NW5         N/A  HX  94
CAHOKIA*       SUNNY     87  72  60 W5        29.90S HX  93
SPARTA*        SUNNY     85  76  74 CALM      29.93R HX  93
$$

ILZ064>066-069>071-074>076-080>082-084>086-088>090-092>094-271700-
SOUTH-CENTRAL ILLINOIS

CITY           SKY/WX    TMP DP  RH WIND       PRES   REMARKS
CARBONDALE     FAIR      86  71  60 VRB3      29.92R HX  91
CAIRO*         FAIR      83  74  72 W5        29.92R HX  90
EFFINGHAM*     FAIR      89  67  48 SE3       29.93R HX  93
MARION         MOSUNNY   84  72  65 W7        29.93R HX  89
MT. VERNON     FAIR      88  73  61 SW5       29.92R HX  95
CENTRALIA*     SUNNY     88  73  61 CALM      29.91R HX  95
SALEM*         FAIR      88  70  56 CALM      29.91S HX  93
METROPOLIS*    FAIR      86  72  63 W5        29.93R HAZE    HX  92
$$

ILZ067-068-072-073-078-083-087-091-271700-
SOUTHEAST ILLINOIS

CITY           SKY/WX    TMP DP  RH WIND       PRES   REMARKS
LAWRENCEVILLE  FAIR      89  67  47 CALM      29.91S HX  92
FLORA*         FAIR      88  70  55 W6        29.91S HX  93
FAIRFIELD*     PTSUNNY   88  70  56 CALM      29.90R HX  92
HARRISBURG*    FAIR      85  73  67 CALM      29.92S HX  92
ROBINSON*      FAIR      87  73  62 CALM      29.91S HX  93
CARMI*         FAIR      89  71  54 SE6       29.91S HX  94
$$

ABBREVIATIONS USED IN REMARKS
   TC - TEMPERATURE IN CELSIUS
  WCI - WIND CHILL INDEX
   HX - HEAT INDEX
  VSB - VISIBILITY
$$





USA.gov is the U.S. government's official web portal to all federal, state and local government web resources and services.